Regional Weather Roundup
Issued by NWS Charleston, WV

Home | Current Version | Previous Version | Graphics & Text | Print | Product List | Glossary On
Versions: 1 2 3 4 5 6 7 8 9 10 11 12 13 14 15 16 17 18 19 20 21 22 23 24 25 26 27 28 29 30 31 32 33 34 35 36 37 38 39 40 41 42 43 44 45 46 47 48 49 50
000
ASUS41 KRLX 280310
RWRRLX
West Virginia Regional Weather Roundup
National Weather Service Charleston WV
1100 PM EDT MON JUL 27 2015

Note: "fair" indicates few or no clouds below 12,000 feet with no
significant weather and/or obstructions to visibility.

WVZ003-280400-
Northern Panhandle of West Virginia

CITY           SKY/WX    TMP DP  RH WIND       PRES   REMARKS
WHEELING       CLEAR     76  63  64 CALM      30.03R
$$

WVZ009-280400-
Northwest West Virginia

CITY           SKY/WX    TMP DP  RH WIND       PRES   REMARKS
PARKERSBURG    CLEAR     73  71  93 CALM      30.04R FOG
$$

WVZ006-280400-
Western West Virginia

CITY           SKY/WX    TMP DP  RH WIND       PRES   REMARKS
HUNTINGTON     PTCLDY    74  73  97 CALM      30.01R
$$

WVZ015-280400-
West Central West Virginia

CITY           SKY/WX    TMP DP  RH WIND       PRES   REMARKS
CHARLESTON     MOCLDY    72  70  93 CALM      30.01R
$$

WVZ022-031-280400-
North Central West Virginia

CITY           SKY/WX    TMP DP  RH WIND       PRES   REMARKS
CLARKSBURG     CLEAR     71  69  93 CALM      30.03R
MORGANTOWN     MOCLDY    77  68  73 SE3       30.04R
$$

WVZ025-035-042-045-280400-
Southern West Virginia

CITY           SKY/WX    TMP DP  RH WIND       PRES   REMARKS
BECKLEY        PTCLDY    72  68  87 CALM      30.10R
LOGAN          CLOUDY    77  73  88 NW5       30.01R
BLUEFIELD      PTCLDY    74  67  78 CALM      30.13R
LEWISBURG      PTCLDY    69  66  92 NE5       30.10S
$$

WVZ047-280400-
Northern Mountains of West Virginia

CITY           SKY/WX    TMP DP  RH WIND       PRES   REMARKS
ELKINS         PTCLDY    71  68  90 CALM      30.08R
$$

WVZ052-280400-
Eastern Panhandle of West Virginia

CITY           SKY/WX    TMP DP  RH WIND       PRES   REMARKS
MARTINSBURG    CLOUDY    75  71  87 CALM      30.02S
PETERSBURG     PTCLDY   N/A N/A N/A CALM      30.04S
$$


USA.gov is the U.S. government's official web portal to all federal, state and local government web resources and services.